| time (UTC) | temp F | wind direction | speed MPH | gust MPH | rain 1hr in | rain 24hr in | rain mn in | humidity % | barometer mb |
| 20260503184521 | 66 | 239 | 4.0 | 12.0 | 0.00 | 0.00 | 0.00 | 43 | 1003.6 |
| 20260503183020 | 66 | 243 | 4.0 | 13.0 | 0.00 | 0.00 | 0.00 | 45 | 1003.8 |
| 20260503181517 | 65 | 338 | 5.0 | 14.0 | 0.00 | 0.00 | 0.00 | 45 | 1004.0 |
| 20260503180023 | 65 | 28 | 4.0 | 17.0 | 0.00 | 0.00 | 0.00 | 46 | 1004.1 |
| 20260503174514 | 64 | 246 | 4.0 | 18.0 | 0.00 | 0.00 | 0.00 | 44 | 1004.3 |
| 20260503173016 | 64 | 316 | 3.0 | 10.0 | 0.00 | 0.00 | 0.00 | 45 | 1004.4 |
| 20260503171506 | 64 | 28 | 5.0 | 15.0 | 0.00 | 0.00 | 0.00 | 45 | 1004.5 |
| 20260503100104 | 44 | 212 | 0.0 | 0.0 | 0.00 | 0.00 | 0.00 | 77 | 1007.5 |
| 20260503081550 | 47 | 212 | 0.0 | 3.0 | 0.00 | 0.00 | 0.00 | 71 | 1009.0 |
| 20260503071553 | 48 | 213 | 1.0 | 4.0 | 0.00 | 0.00 | 0.00 | 69 | 1009.6 |
| 20260503054528 | 45 | 245 | 0.0 | 2.0 | 0.00 | 0.00 | 0.00 | 71 | 1010.1 |
| 20260503053025 | 46 | 245 | 0.0 | 2.0 | 0.00 | 0.00 | 0.00 | 69 | 1010.3 |
| 20260503051525 | 46 | 245 | 0.0 | 1.0 | 0.00 | 0.00 | 0.00 | 67 | 1010.5 |
| 20260503050017 | 45 | 245 | 0.0 | 2.0 | 0.00 | 0.00 | 0.00 | 67 | 1010.8 |
| 20260503044525 | 45 | 249 | 1.0 | 4.0 | 0.00 | 0.00 | 0.00 | 68 | 1010.8 |
| 20260503043016 | 45 | 126 | 0.0 | 1.0 | 0.00 | 0.00 | 0.00 | 68 | 1010.9 |
| 20260503041515 | 45 | 126 | 1.0 | 2.0 | 0.00 | 0.00 | 0.00 | 68 | 1011.0 |
| 20260503040015 | 45 | 126 | 0.0 | 2.0 | 0.00 | 0.00 | 0.00 | 68 | 1011.2 |
| 20260503034511 | 46 | 126 | 0.0 | 2.0 | 0.00 | 0.00 | 0.00 | 65 | 1011.5 |
| 20260503033010 | 47 | 126 | 0.0 | 0.0 | 0.00 | 0.00 | 0.00 | 64 | 1011.7 |
| 20260503031508 | 48 | 126 | 0.0 | 2.0 | 0.00 | 0.00 | 0.00 | 64 | 1011.9 |
| 20260503030006 | 49 | 126 | 0.0 | 1.0 | 0.00 | 0.00 | 0.00 | 60 | 1012.0 |
| 20260503024504 | 50 | 126 | 0.0 | 0.0 | 0.00 | 0.00 | 0.00 | 55 | 1012.3 |
| 20260503023011 | 50 | 126 | 0.0 | 1.0 | 0.00 | 0.00 | 0.00 | 56 | 1012.4 |
| 20260503021503 | 51 | 126 | 0.0 | 3.0 | 0.00 | 0.00 | 0.00 | 55 | 1012.5 |
| 20260503020002 | 51 | 124 | 0.0 | 2.0 | 0.00 | 0.00 | 0.00 | 53 | 1012.5 |
| 20260503014502 | 52 | 124 | 0.0 | 1.0 | 0.00 | 0.00 | 0.00 | 49 | 1012.5 |
| 20260503013001 | 53 | 124 | 0.0 | 2.0 | 0.00 | 0.00 | 0.00 | 49 | 1012.4 |
| 20260503011608 | 53 | 123 | 0.0 | 3.0 | 0.00 | 0.00 | 0.00 | 46 | 1012.5 |
| 20260503010100 | 54 | 221 | 0.0 | 4.0 | 0.00 | 0.00 | 0.00 | 44 | 1012.8 |
| 20260503004557 | 55 | 220 | 2.0 | 4.0 | 0.00 | 0.00 | 0.00 | 43 | 1012.8 |
| 20260503003104 | 55 | 209 | 3.0 | 7.0 | 0.00 | 0.00 | 0.00 | 41 | 1013.0 |
| 20260503001554 | 56 | 225 | 2.0 | 11.0 | 0.00 | 0.00 | 0.00 | 40 | 1013.1 |
| 20260503000108 | 56 | 324 | 3.0 | 9.0 | 0.00 | 0.00 | 0.00 | 39 | 1013.2 |
| 20260502234551 | 57 | 17 | 1.0 | 8.0 | 0.00 | 0.00 | 0.00 | 38 | 1013.3 |
| 20260502233051 | 57 | 332 | 2.0 | 12.0 | 0.00 | 0.00 | 0.00 | 37 | 1013.5 |
| 20260502231550 | 57 | 13 | 2.0 | 12.0 | 0.00 | 0.00 | 0.00 | 37 | 1013.4 |
| 20260502230051 | 58 | 301 | 3.0 | 15.0 | 0.00 | 0.00 | 0.00 | 33 | 1013.5 |
| 20260502224548 | 59 | 315 | 3.0 | 16.0 | 0.00 | 0.00 | 0.00 | 32 | 1013.5 |
| 20260502223047 | 59 | 211 | 3.0 | 12.0 | 0.00 | 0.00 | 0.00 | 31 | 1013.7 |
| 20260502221546 | 58 | 214 | 3.0 | 13.0 | 0.00 | 0.00 | 0.00 | 35 | 1013.7 |
| 20260502220046 | 58 | 340 | 3.0 | 12.0 | 0.00 | 0.00 | 0.00 | 32 | 1013.9 |
| 20260502214542 | 58 | 257 | 2.0 | 13.0 | 0.00 | 0.00 | 0.00 | 35 | 1014.0 |
| 20260502213041 | 59 | 213 | 6.0 | 16.0 | 0.00 | 0.00 | 0.00 | 31 | 1014.2 |
| 20260502211547 | 58 | 28 | 4.0 | 10.0 | 0.00 | 0.00 | 0.00 | 33 | 1014.3 |
| 20260502210037 | 58 | 11 | 5.0 | 16.0 | 0.00 | 0.00 | 0.00 | 33 | 1014.3 |
| 20260502204536 | 58 | 238 | 4.0 | 13.0 | 0.00 | 0.00 | 0.00 | 34 | 1014.5 |
| 20260502203034 | 58 | 354 | 1.0 | 14.0 | 0.00 | 0.00 | 0.00 | 33 | 1014.7 |
| 20260502201534 | 58 | 338 | 4.0 | 10.0 | 0.00 | 0.00 | 0.00 | 31 | 1015.2 |
| 20260502200038 | 58 | 251 | 7.0 | 19.0 | 0.00 | 0.00 | 0.00 | 36 | 1015.3 |
| 20260502194528 | 57 | 339 | 4.0 | 15.0 | 0.00 | 0.00 | 0.00 | 31 | 1015.7 |
| 20260502193024 | 56 | 1 | 9.0 | 20.0 | 0.00 | 0.00 | 0.00 | 34 | 1015.9 |
| 20260502191523 | 56 | 44 | 4.0 | 9.0 | 0.00 | 0.00 | 0.00 | 34 | 1016.0 |
| 20260502190021 | 56 | 326 | 4.0 | 13.0 | 0.00 | 0.00 | 0.00 | 35 | 1016.3 |